Weather History for Bradshaw AFB, HI

Change the Weather History Date:

Wednesday, October 30, 2013

  Actual Average Record
Temperature  
Mean Temperature 55 °F -  
Max Temperature 68 °F 67 °F 75 °F (2012)
Min Temperature 42 °F 48 °F 42 °F (2007)
Degree Days  
Heating Degree Days 10    
Growing Degree Days 5 (Base 50)    
Moisture  
Dew Point 50 °F    
Average Humidity 82    
Maximum Humidity 100    
Minimum Humidity 44    
Precipitation  
Precipitation 0.00 in - - ()
Sea Level Pressure  
Sea Level Pressure 30.37 in    
Wind  
Wind Speed 7 mph (SSW)    
Max Wind Speed 23 mph    
Max Gust Speed 32 mph    
Visibility 8 miles    
Events Fog , Rain    
Averages and records for this station are not official NWS values.
T = Trace of Precipitation, MM = Missing Value Source: NWS Daily Summary

Daily Weather History Graph

Daily Weather History Graph

Search for Another Location

Airport:

Trip Planner

Search our weather history database for the weather conditions in past years. The results will help you decide how hot, cold, wet, or windy it might be!

Date:

Astronomy

Oct. 30, 2013 Rise Set
Actual Time 6:22 AM HST 5:48 PM HST
Civil Twilight 6:00 AM HST 6:11 PM HST
Nautical Twilight 5:34 AM HST 6:37 PM HST
Astronomical Twilight 5:08 AM HST 7:03 PM HST
Moon 2:51 AM HST (10/30) 3:14 PM HST (10/30)
Length of Visible Light 12h 11m
Length of Day
11h 26m
Waning Crescent, 15% of the Moon is Illuminated
Oct 30
Waning Crescent
Nov 3
New
Nov 9
First Quarter
Nov 17
Full
Nov 25
Last Quarter

Hourly Weather History & Observations

Time (HST) Temp. Windchill Dew Point Humidity Pressure Visibility Wind Dir Wind Speed Gust Speed Precip Events Conditions
12:56 AM 45.9 °F 41.7 °F 38.5 °F 75% 30.35 in 12.0 mi ESE 8.1 mph - N/A   Clear
1:56 AM 43.7 °F 41.1 °F 29.5 °F 57% 30.35 in 12.0 mi East 4.6 mph - N/A   Clear
2:56 AM 42.8 °F 40.1 °F 27.0 °F 54% 30.32 in 12.0 mi ESE 4.6 mph - N/A   Clear
3:56 AM 46.9 °F - 26.1 °F 44% 30.32 in 12.0 mi North 5.8 mph - N/A   Clear
4:56 AM 43.2 °F - 35.2 °F 74% 30.34 in 12.0 mi SW 1.2 mph - N/A   Clear
5:56 AM 47.1 °F - 27.3 °F 46% 30.34 in 12.0 mi SE 2.3 mph - N/A   Clear
6:56 AM 54.9 °F - 46.6 °F 74% 30.35 in 12.0 mi SSE 11.5 mph 20.7 mph N/A   Clear
7:57 AM 59.0 °F - 50.2 °F 73% 30.37 in 12.0 mi SE 12.7 mph 21.9 mph N/A   Clear
8:56 AM 61.3 °F - 52.0 °F 71% 30.36 in 12.0 mi SSE 18.4 mph 28.8 mph N/A   Partly Cloudy
9:56 AM 61.3 °F - 52.3 °F 72% 30.38 in 12.0 mi SE 23.0 mph 32.2 mph N/A   Clear
10:57 AM 65.3 °F - 52.0 °F 62% 30.37 in 12.0 mi SSE 18.4 mph 29.9 mph N/A   Partly Cloudy
11:56 AM 68.2 °F - 52.3 °F 57% 30.38 in 12.0 mi South 13.8 mph 23.0 mph N/A   Partly Cloudy
12:26 PM 62.6 °F - 53.6 °F 72% 30.37 in 12.0 mi WSW 8.1 mph 19.6 mph N/A   Mostly Cloudy
12:56 PM 60.4 °F - 53.2 °F 77% 30.35 in 11.0 mi West 4.6 mph 15.0 mph N/A   Mostly Cloudy
1:46 PM 62.6 °F - 53.6 °F 72% 30.34 in 10.0 mi WSW 10.4 mph 18.4 mph N/A   Overcast
1:51 PM 62.6 °F - 55.4 °F 77% 30.33 in 11.0 mi WSW 10.4 mph 18.4 mph N/A   Mostly Cloudy
1:56 PM 62.1 °F - 54.7 °F 77% 30.33 in 11.0 mi WSW 13.8 mph 19.6 mph N/A   Mostly Cloudy
2:56 PM 60.6 °F - 55.0 °F 82% 30.33 in 8.0 mi West 10.4 mph 15.0 mph N/A   Mostly Cloudy
3:41 PM 60.8 °F - 55.4 °F 82% 30.33 in 9.0 mi West 11.5 mph 18.4 mph N/A   Mostly Cloudy
3:56 PM 58.8 °F - 55.4 °F 88% 30.34 in 7.0 mi WSW 12.7 mph - N/A   Mostly Cloudy
4:56 PM 56.8 °F - 55.4 °F 95% 30.36 in 2.0 mi WSW 8.1 mph - N/A   Mostly Cloudy
4:59 PM 57.2 °F - 55.4 °F 94% 30.36 in 1.5 mi West 8.1 mph - N/A Rain Light Rain Showers
5:04 PM 57.2 °F - 55.4 °F 94% 30.36 in 1.6 mi West 5.8 mph - N/A Rain Light Rain Showers
5:09 PM 57.2 °F - 55.4 °F 94% 30.36 in 2.5 mi West 5.8 mph - N/A Rain Light Rain Showers
5:14 PM 57.2 °F - 55.4 °F 94% 30.36 in 4.0 mi SW 3.5 mph - N/A Rain Light Rain Showers
5:21 PM 57.2 °F - 55.4 °F 94% 30.36 in 6.0 mi SW 3.5 mph - N/A   Mostly Cloudy
5:31 PM 57.2 °F - 53.6 °F 88% 30.36 in 7.0 mi WSW 5.8 mph - N/A   Overcast
5:41 PM 59.0 °F - 53.6 °F 82% 30.36 in 10.0 mi SE 3.5 mph - N/A   Mostly Cloudy
5:51 PM 57.2 °F - 53.6 °F 88% 30.36 in 7.0 mi West 4.6 mph - N/A   Mostly Cloudy
5:56 PM 57.4 °F - 54.1 °F 89% 30.37 in 7.0 mi West 1.2 mph - N/A   Mostly Cloudy
6:11 PM 57.2 °F - 53.6 °F 88% 30.37 in 7.0 mi WSW 3.5 mph - N/A   Scattered Clouds
6:31 PM 55.4 °F - 53.6 °F 94% 30.37 in 1.4 mi West 6.9 mph - N/A   Partly Cloudy
6:36 PM 55.4 °F - 53.6 °F 94% 30.37 in 0.5 mi West 5.8 mph - N/A Fog Fog
6:51 PM 55.4 °F - 53.6 °F 94% 30.38 in 0.1 mi West 3.5 mph - N/A Fog Fog
6:56 PM 55.0 °F - 54.3 °F 97% 30.38 in 0.1 mi WSW 5.8 mph - N/A Fog Fog
7:06 PM 55.4 °F - 53.6 °F 94% 30.39 in 0.1 mi WSW 2.3 mph - N/A Fog Fog
7:26 PM 55.4 °F - 53.6 °F 94% 30.40 in 1.8 mi SSE 1.2 mph - N/A   Mostly Cloudy
7:31 PM 55.4 °F - 53.6 °F 94% 30.41 in 1.8 mi SE 2.3 mph - N/A   Mostly Cloudy
7:36 PM 55.4 °F - 53.6 °F 94% 30.41 in 0.9 mi ESE 2.3 mph - N/A   Mostly Cloudy
7:51 PM 55.4 °F - 53.6 °F 94% 30.41 in 4.0 mi NNE 2.3 mph - N/A   Mostly Cloudy
7:56 PM 54.3 °F - 53.8 °F 98% 30.42 in 2.8 mi ESE 2.3 mph - N/A   Scattered Clouds
8:06 PM 53.6 °F - 53.6 °F 100% 30.42 in 4.0 mi ESE 1.2 mph - N/A   Partly Cloudy
8:56 PM 54.3 °F - 50.7 °F 88% 30.42 in 11.0 mi ESE 3.5 mph - N/A   Partly Cloudy
9:56 PM 54.0 °F - 50.9 °F 89% 30.42 in 12.0 mi ESE 4.6 mph - N/A   Clear
10:56 PM 51.1 °F - 48.0 °F 89% 30.42 in 12.0 mi SE 4.6 mph - N/A   Clear
11:56 PM 53.4 °F - 49.3 °F 86% 30.42 in 12.0 mi ESE 5.8 mph - N/A   Mostly Cloudy